Regional Weather Roundup
Issued by NWS

Home | Current Version | Previous Version | Graphics & Text | Print | Product List | Glossary On
Versions: 1 2 3 4 5 6 7 8 9 10 11 12 13 14 15 16 17 18 19 20 21 22 23 24 25 26 27 28 29 30 31 32 33 34 35 36 37 38 39 40 41 42 43 44 45 46 47 48 49 50
000
ASUS43 KFSD 272002
RWRSD

WEATHER ROUNDUP FOR SOUTH DAKOTA
NATIONAL WEATHER SERVICE SIOUX FALLS SD
200 PM CST MON FEB 27 2017

NOTE: "FAIR" INDICATES FEW OR NO CLOUDS BELOW 12,000 FEET WITH NO
SIGNIFICANT WEATHER AND/OR OBSTRUCTIONS TO VISIBILITY.


SDZ001>005-009-010-012>017-272100-
NORTHWEST AND NORTH CENTRAL SOUTH DAKOTA

CITY           SKY/WX    TMP DP  RH WIND       PRES   REMARKS
BUFFALO          N/A     35  19  52 E3        29.56F
FAITH            N/A     36  21  54 N7        29.64F
MOBRIDGE       CLOUDY    39  20  46 NW3       29.66F
$$

SDZ012>016-024>037-041>051-057-063-072>074-272100-
SOUTHWEST AND SOUTH CENTRAL SOUTH DAKOTA

CITY           SKY/WX    TMP DP  RH WIND       PRES   REMARKS
RAPID CTY ARPT CLOUDY    43  24  47 NW8       29.57F
PIERRE         MOSUNNY   47  15  27 VRB3      29.64F
CUSTER         FLURRIES  31  20  63 W10G20    29.54F WCI  22
ELLSWORTH AFB  CLOUDY    40  20  44 NE9       29.57F
PHILIP         CLOUDY    46  18  32 W6        29.62F
PINE RIDGE     CLOUDY    36  20  52 S9        29.61F
SPEARFISH      FAIR      34  14  44 NE12      29.59S WCI  25
WINNER         FAIR      46  28  49 SW17      29.68F
$$

SDZ004>011-016>023-039-040-272100-
NORTHEAST SOUTH DAKOTA

CITY           SKY/WX    TMP DP  RH WIND       PRES   REMARKS
ABERDEEN       SUNNY     40  19  43 S12       29.73F
WATERTOWN      CLOUDY    43  20  39 S18G25    29.72F
BROOKINGS      CLOUDY    44  19  36 S22G31    29.75F
SISSETON         N/A     36  27  69 S10       29.76F
$$

SDZ017-020-022-023-036>040-048>070-272100-
SOUTHEAST SOUTH DAKOTA

CITY           SKY/WX    TMP DP  RH WIND       PRES   REMARKS
SIOUX FALLS    CLOUDY    43  24  47 S18G25    29.80F
HURON          CLOUDY    45  19  35 S13G23    29.73F
CHAMBERLAIN    MOSUNNY   49  28  44 S21G28    29.69F
MITCHELL       MOSUNNY   45  25  45 S15G24    29.75F
YANKTON        CLOUDY    43  27  52 S10       29.79F
$$

ABBREVIATIONS USED IN REMARKS
   TC - TEMPERATURE IN CELSIUS
  WCI - WIND CHILL INDEX
   HX - HEAT INDEX
  VSB - VISIBILITY




USA.gov is the U.S. government's official web portal to all federal, state and local government web resources and services.